Location: Ladrillo (historical)
(32.8195°N, 117.2231°W)
Time: 10:22:56
(UTC+00:00)

Vanguard 3 - Pass Details

Date: 04 March 2021
Orbit: 508 x 3262 km, 33.3° (Epoch: 14 April)

Event Time Altitude Azimuth Distance (km) Brightness Sun altitude
Rises 19:38:34 0° 208° (SSW) 6,512 12.2 50.7°
Reaches altitude 10° 19:43:11 10° 200° (SSW) 5,774 12.2 50.8°
Maximum altitude 19:59:25 37° 141° (SE) 4,361 12.1 51.1°
Drops below altitude 10° 20:15:24 10° 83° (E) 5,744 11.5 50.9°
Sets 20:19:52 0° 76° (ENE) 6,484 11.6 50.8°
